#timestamp,LO_Frequency,Hit,StdDev 
1583323215.7,286046998.8,N
1583323235.5,286046996.5,N
1583323255.3,286046999.1,N
1583323275.2,286046996.8,N
1583323325.0,286046996.5,E
1583323335.9,286047000.3,N
1583323355.7,286047004.4,P
1583323375.5,286047002.4,N
1583323395.4,286047000.5,N
1583323415.2,286047002.7,N
1583323435.1,286047000.2,N
1583323436.0,286047000.2,N
1583323455.8,286047002.4,N
1583323475.6,286047002.6,N
1583323495.5,286047002.6,N
1583323515.3,286047002.1,N
1583323535.2,286047001.6,N
1583323555.9,286047003.8,Y
1583323575.7,286047002.6,P
1583323595.6,286047002.4,P
1583323615.4,286047002.3,P
1583323635.3,286047002.3,Y
1583323655.1,286046998.8,P
1583323656.0,286046998.8,N
1583323675.8,286047000.5,N
1583323695.7,286047000.0,N
1583323715.5,286046999.0,N
1583323735.3,286046996.6,N
1583323755.2,286046997.9,N
1583323775.0,286046998.0,N
1583323775.9,286046998.0,N
1583323795.8,286046996.2,N
1583323815.6,286046996.0,N
1583323835.4,286046994.1,Y
1583323855.3,286046996.9,P
1583323875.1,286046998.3,N
1583323895.9,286046998.0,N
1583323915.7,286046997.9,Y
1583323935.5,286046996.6,P
1583323955.4,286046997.5,P
1583323975.2,286046993.4,P
1583323995.0,286046995.6,N
1583323995.9,286046995.6,N
1583324015.8,286046995.8,N
1583324035.6,286046996.2,N
1583324055.5,286046997.1,N
1583324075.3,286046997.2,N
1583324095.1,286046997.4,N
1583324115.9,286046997.3,N
1583324135.7,286046999.2,N
1583324155.6,286046999.9,N
1583324175.4,286047001.0,N
1583324195.2,286046998.6,N
1583324215.1,286047000.0,N
1583324216.0,286047000.0,N
1583324235.8,286047001.2,N
1583324255.6,286047000.9,N
1583324275.5,286047000.1,N
1583324295.3,286047002.0,N
1583324315.2,286047002.6,N
1583324335.9,286047002.2,N
1583324355.7,286047002.5,N
1583324375.6,286047000.9,N
1583324395.4,286046998.5,N
1583324415.2,286047001.0,N
1583324435.1,286047002.7,N
1583324436.0,286047002.7,N
1583324455.8,286046999.9,N
1583324475.7,286047000.9,N
1583324495.5,286047000.2,N
1583324515.3,286047001.1,N
1583324535.2,286047000.4,N
1583324555.0,286047001.5,N
1583324555.9,286047001.5,N
1583324575.8,286047000.1,N
1583324595.6,286047002.7,N
1583324615.4,286047000.7,N
1583324635.3,286047000.8,N
1583324655.1,286046998.3,N
1583324675.8,286046999.3,N
1583324695.7,286046996.6,N
1583324715.5,286046999.2,N
1583324735.4,286046999.1,N
1583324755.2,286046999.3,N
1583324775.0,286047000.8,N
1583324775.9,286047000.8,N
1583324795.8,286047000.9,N
1583324815.6,286046998.5,N
1583324835.4,286046999.2,N
1583324855.3,286046999.3,N
1583324875.1,286046999.5,N
1583324895.9,286046996.8,N
1583324915.7,286046997.7,N
1583324935.5,286046999.5,N
1583324955.4,286046997.0,N
1583324975.2,286046999.0,N
1583324995.0,286046999.3,N
1583324996.0,286046999.3,N
1583325015.8,286046996.7,N
1583325035.6,286046996.6,N
1583325055.5,286046999.7,N
1583325075.3,286047000.8,N
1583325095.1,286047000.6,N
1583325115.9,286047001.7,N
1583325135.7,286046999.7,N
1583325155.6,286046999.9,N
1583325175.4,286047002.4,N
1583325195.2,286047001.5,N
1583325215.1,286047002.2,N
1583325216.0,286047002.2,N
1583325235.8,286047001.9,N
1583325255.6,286047001.9,N
1583325275.5,286047001.8,N
1583325295.3,286047001.4,N
1583325315.2,286047002.7,N
1583325335.9,286047002.6,N
1583325355.7,286046999.7,N
1583325375.6,286047000.6,N
1583325395.4,286046998.5,N
1583325415.3,286046999.1,N
1583325435.1,286046996.9,N
1583325436.0,286046996.9,N
1583325455.8,286046997.1,N
1583325475.7,286046997.4,N
1583325495.5,286046998.0,N
1583325515.3,286046995.0,N
1583325535.2,286046995.1,N
1583325555.0,286046994.9,N
1583325555.9,286046994.9,N
1583325575.8,286046997.7,N
1583325595.6,286046994.9,N
1583325615.4,286046997.4,N
1583325635.3,286046998.0,N
1583325655.1,286046999.5,N
1583325675.9,286046997.8,N
1583325695.7,286046998.0,N
1583325715.5,286046999.5,N
1583325735.4,286046997.2,N
1583325755.2,286046999.6,N
1583325775.0,286046998.0,N
1583325775.9,286046998.0,N
1583325795.8,286046997.7,N
1583325815.6,286046997.5,N
1583325835.5,286046998.0,N
1583325855.3,286046995.0,N
1583325875.1,286046997.6,N
1583325895.9,286046996.4,N
1583325915.7,286046995.4,Y
1583325935.6,286046999.5,P
1583325955.4,286046998.2,N
1583325975.2,286046998.9,N
1583325995.1,286046998.3,N
1583325996.0,286046998.3,N
1583326015.8,286046999.4,N
1583326035.7,286046994.9,Y
1583326055.5,286046997.0,P
1583326075.3,286046996.8,P
1583326095.2,286046997.5,P
1583326115.9,286046995.7,Y
1583326135.7,286047001.1,P
1583326155.6,286046998.2,N
1583326175.4,286046999.8,N
1583326195.3,286047001.5,N
1583326215.1,286047002.3,N
1583326216.0,286047002.3,N
1583326235.8,286047000.6,N
1583326255.7,286046999.9,N
1583326275.5,286047004.4,N
1583326295.3,286047001.9,N
1583326315.2,286047002.8,N
1583326335.0,286046999.9,N
1583326335.9,286046999.9,N
1583326355.8,286047000.0,N
1583326375.6,286047002.7,N
1583326395.4,286047000.9,N
1583326415.3,286047000.9,N
1583326435.1,286046998.7,N
1583326455.9,286046998.2,N
1583326475.7,286046998.8,N
1583326495.5,286046999.1,N
1583326515.4,286047000.5,N
1583326535.2,286047000.9,N
1583326555.0,286046998.3,N
1583326555.9,286046998.3,N
1583326575.8,286046998.8,N
1583326595.6,286046998.9,N
1583326615.5,286046999.3,N
1583326635.3,286046998.9,N
1583326655.1,286046996.6,N
1583326675.9,286046997.1,N
1583326695.7,286046996.5,N
1583326715.6,286046997.3,N
1583326735.4,286046997.9,N
1583326755.2,286046994.9,N
1583326775.1,286046995.6,N
1583326776.0,286046995.6,N
1583326795.8,286046995.0,N
